Regional Weather Roundup
Issued by NWS Upton, NY

Current Version | Previous Version | Text Only | Print | Product List | Glossary On
Versions: 1 2 3 4 5 6 7 8 9 10 11 12 13 14 15 16 17 18 19 20 21 22 23 24 25 26 27 28 29 30 31 32 33 34 35 36 37 38 39 40 41 42 43 44 45 46 47 48 49 50
000 ASUS41 KOKX 252309 RWROKX REGIONAL WEATHER ROUNDUP NATIONAL WEATHER SERVICE NEW YORK NY 700 PM EDT SUN JUN 25 2017 NOTE: "FAIR" INDICATES FEW OR NO CLOUDS BELOW 12,000 FEET WITH NO SIGNIFICANT WEATHER AND/OR OBSTRUCTIONS TO VISIBILITY. NYZ071-072-176-178-NJZ106-104-260000- NEW YORK CITY METRO AREA CITY SKY/WX TMP DP RH WIND PRES REMARKS Central Park MOSUNNY 76 58 53 CALM 29.95S Bronx Bot Gard N/A 77 57 50 SE7 29.92F LaGuardia APRT MOSUNNY 79 60 52 S10 29.92R Kennedy INTL PTSUNNY 75 65 70 S15 29.93S Breezy Point N/A 68 N/A N/A S15 N/A Newark/Liberty PTSUNNY 82 54 37 W12 29.91S Teterboro SUNNY 80 57 45 CALM 29.90S $$ NYZ177-179-078>081-260000- LONG ISLAND NEW YORK CITY SKY/WX TMP DP RH WIND PRES REMARKS Jones Beach N/A 70 N/A N/A CALM N/A Matinecock PT NOT AVBL Farmingdale NOT AVBL MacArthur/ISP PTSUNNY 76 58 53 SW9 29.94R Shirley SUNNY 75 59 57 S8 29.95R Mt Sinai Harb N/A N/A N/A N/A SW3 N/A Westhampton SUNNY 73 54 51 SW7 29.96R East Hampton FAIR 73 55 53 SW6 29.94R Montauk N/A 73 58 59 SW6 29.96R $$ NYZ052-065-067-260000- HUDSON VALLEY CITY SKY/WX TMP DP RH WIND PRES REMARKS White Plains NOT AVBL Larchmont Harb N/A 73 N/A N/A S5 N/A Croton O-T Hud N/A 77 N/A N/A S7G14 N/A Newburgh MOSUNNY 79 57 47 W12 29.92S Montgomery MOSUNNY 76 53 44 W5 29.91R Poughkeepsie MOSUNNY 79 57 46 SW8 29.89S Albany TSTM 65 52 62 W20G26 29.96R $$ NJZ001-105-106-008-010-013-015-019>022-104-260000- NEW JERSEY CITY SKY/WX TMP DP RH WIND PRES REMARKS Newark/Liberty PTSUNNY 82 54 37 W12 29.91S Teterboro SUNNY 80 57 45 CALM 29.90S Caldwell SUNNY 82 57 42 W6 29.92S Somerville SUNNY 81 57 43 VRB3 29.91R Linden FAIR 83 52 34 NW10G17 29.91S Perth Amboy N/A 81 N/A N/A W14 N/A Sussex SUNNY 79 54 41 W6 29.92S Andover N/A 78 51 38 VRB6 29.94R Trenton MOSUNNY 82 55 39 W7 29.93R Millville PTSUNNY 79 65 62 VRB3 29.95R Atlantic City NOT AVBL Wrightstown PTSUNNY 84 57 39 W7 29.92S Toms River MOSUNNY 79 61 53 S9 29.94R Belmar CLOUDY 75 64 68 SE5 29.95R $$ PAZ047>061-062-071-260000- EASTERN PENNSYLVANIA CITY SKY/WX TMP DP RH WIND PRES REMARKS Philadelphia PTSUNNY 84 52 33 W16 29.94R Allentown MOSUNNY 79 52 38 W8 29.94R Scranton MOSUNNY 76 48 37 W13 29.95R $$ CTZ002-004>006-009-010-012-RIZ004-006-007-MAZ004-011-015-260000- SOUTHERN NEW ENGLAND IN CT CITY SKY/WX TMP DP RH WIND PRES REMARKS Bradley INTL MOSUNNY 77 62 59 S9 29.89S Hartford SUNNY 78 58 49 S12G17 29.89R Danbury MOSUNNY 75 60 59 S7 29.94R Wtrbury/Oxford MOSUNNY 75 57 53 W5 29.95R Bridgeport MOSUNNY 77 60 55 SW6 29.92S Meriden SUNNY 76 59 55 S7 29.91S New Haven MOSUNNY 73 61 64 SW6 29.93R Chester FAIR 75 59 57 VRB6 29.94R Groton MOSUNNY 72 60 66 SW9 29.92R Wilimantic MOSUNNY 77 58 51 SW8 29.91S IN RI CITY SKY/WX TMP DP RH WIND PRES REMARKS Providence CLOUDY 73 60 63 SW6 29.92F Block Island MOSUNNY 71 62 73 SW9 29.95R Westerly PTSUNNY 75 59 57 SW10 29.93S IN MA CITY SKY/WX TMP DP RH WIND PRES REMARKS Boston CLOUDY 75 58 55 SW15 29.88R Worcester SUNNY 72 56 57 S10 29.92S Westfield SUNNY 78 57 48 S10 N/A Provincetown LGT RAIN 68 60 75 W10 29.93R Nantucket SUNNY 67 61 81 SW7 29.94R $$ ANZ330-335-338-340-345-350-353-355-260000- COASTAL MARINE OBSERVATIONS STATION/POSITION TIME SKY/WX TEMP WIND PRES VSBY WAVE AIR SEA DIR/SP/G HT/PER (UTC) (F) (DEG/KT/KT) (MB) (MI) (FT/S) NY HARB ENTRANCE 2250 71 69 190/ 12/ 14 1013.2 2/ 8 20 S FIRE ISLAND 2250 71 71 180/ 14/ 16 1013.0 3/ 8 GREAT SOUTH BAY 2215 73 77 220/ 6/ 10 N/A 23 SSW MONTAUK P 2150 70 67 1013.8 4/ 8 15 E BARNEGAT LI 2230 67 N/A 3/ 8 HUDSON CANYON 2250 70 69 200/ 8/ 10 1014.0 3/ 8 KINGS POINT 2230 75 69 210/ 13/ 14 1013.2 EXECUTION ROCKS 2200 75 190/ 4/ 8 N/A CENTRAL LI SOUND NOT AVBL EASTERN LI SOUND NOT AVBL ROBBINS REEF 2224 150/ 10/ 11 1013.5 $$ >>>>>>>>>>>>>>>>>>>>>>>>>>>> KEY <<<<<<<<<<<<<<<<<<<<<<<<<<< > < > SKY/WX - Sky Condition/Present Weather < > TMP - Temperature in Fahrenheit < > DP - Dew Point in Fahrenheit < > RH - Relative Humidity in Percent < > WIND - Direction (from) and Speed in MPH < > PRES - Mean Sea Level Pressure (inches of Hg) < > WCI - Wind Chill Index < > VSB - VISIBILITY IN MILES < > HX - HEAT INDEX < > TC - TEMPERATURE IN CELSIUS < > VRB - VARIABLE WIND DIRECTION < > < >>>>>>>>>>>>>>>>>>>>>>>>>>>> KEY <<<<<<<<<<<<<<<<<<<<<<<<<<<

USA.gov is the U.S. government's official web portal to all federal, state and local government web resources and services.